Weather in Sitka

United States     57°03′18″N   135°20′34″W
temp.,
°C
wind,
m/s
gust,
m/s
humid.,
%
clouds,
%
prec.,
mm/h
press.,
hPa
HPBL,
m
6 may, thu
thu601:00+5ene3489100 1.1 1007305
04:00+5ene4589100 2.4 1005287
07:00+6ene4580100 0.1 1002150
10:00+11ene41256100 0.1 10011359
13:00+11ese31065100 0.7 10011385
16:00+8ese1286100 2.5 1003214
19:00+8e2286100 1.4 1004303
22:00+6ese2388100 1.7 100789
7 may, fri
fri701:00+5e2386100 0.1 1009119
04:00+5ese2290100 0.4 1011262
07:00+5e2293100 0.3 1012582
10:00+5e2393100 0.6 1014471
13:00+5se2394100 1.6 1016466
16:00+5s2395100 3.5 1018625
19:00+5s2395100 1.2 1019347
22:00+4sse2291100 1.3 1019189
8 may, sat
sat801:00+3ese229185 0.0 101953
04:00+3e3385100 0.0 1019124
07:00+3e3390100 0.1 1018202
10:00+4e3487100 0.6 1019366
13:00+4e3394100 0.6 1020231
16:00+4e1293100 1.1 1021244
19:00+4ene1195100 1.9 1022136
22:00+5wsw1187100 2.4 102327
9 may, sun
sun901:00+4ssw009399 0.4 102437
04:00+4wsw1198100 1.4 102577
07:00+4wnw129697 1.2 1025313
10:00+6wnw117983 1.4 1026436
13:00+7w227292 0.3 1025902
16:00+7w227595 0.5 1025682
19:00+6w117659 0.1 1024480
22:00+5wsw118599 0.1 102428
10 may, mon
mon1001:00+5s1188100 0.0 102428
04:00+4ese118858 0.1 102248
07:00+5e1282100 0.0 1021168
10:00+7ese1265100 0.0 1020714
13:00+6ese2374100 0.7 1020688
16:00+6ese2379100 1.3 1020605
19:00+4e3394100 0.9 1019307
22:00+3e3395100 2.4 1020200